When you browse on this site, cookies collect data to enhance your experience and personalize the content and advertising you see.
Visit our Privacy Policy to learn more. By continuing to use the site, you agree to this use of cookies and data.
  • In Hungary
  • List of Countries
  • For 7 days
  • Water Temperature
  • Satellite Maps
  • Weather Map
  • News
  • Weather Widgets
  • user-avatar
    Login

    Hourly Weather Szolnok

    Today, 20 January, Sunday

    Time Temperature Precipitation Wind Pressure Humidity
    00:00 -2°C° 0 mm 2 mps 756 mmHg 83%
    01:00 -2°C° 0 mm 2 mps 755 mmHg 85%
    02:00 -2°C° 0.2 mm 2 mps 755 mmHg 87%
    03:00 -2°C° 0.2 mm 2 mps 755 mmHg 89%
    04:00 -2°C° 0.2 mm 3 mps 755 mmHg 91%
    05:00 -2°C° 0.3 mm 3 mps 754 mmHg 91%
    06:00 -2°C° 0.3 mm 3 mps 754 mmHg 92%
    07:00 -2°C° 0.3 mm 3 mps 754 mmHg 93%
    08:00 -2°C° 0.5 mm 3 mps 754 mmHg 93%
    09:00 -1°C° 0.5 mm 3 mps 754 mmHg 94%
    10:00 -1°C° 0.5 mm 3 mps 754 mmHg 94%
    11:00 -1°C° 0.6 mm 3 mps 754 mmHg 94%
    12:00 -1°C° 0.6 mm 2 mps 754 mmHg 95%
    13:00 -1°C° 0.6 mm 2 mps 753 mmHg 96%
    14:00 -1°C° 0.4 mm 2 mps 754 mmHg 96%
    15:00 -1°C° 0.4 mm 2 mps 754 mmHg 95%
    16:00 -1°C° 0.4 mm 2 mps 754 mmHg 95%
    17:00 -1°C° 0.2 mm 2 mps 754 mmHg 96%
    18:00 +1°C° 0.2 mm 1 mps 754 mmHg 96%
    19:00 +1°C° 0.2 mm 1 mps 754 mmHg 96%
    20:00 +1°C° 0.1 mm 1 mps 754 mmHg 95%
    21:00 +1°C° 0.1 mm 1 mps 755 mmHg 95%
    22:00 +1°C° 0.1 mm 1 mps 755 mmHg 94%
    23:00 +1°C° 0 mm 1 mps 756 mmHg 93%

    Tomorrow, 21 January, Monday

    Time Temperature Precipitation Wind Pressure Humidity
    00:00 +1°C° 0 mm 1 mps 756 mmHg 92%
    01:00 +1°C° 0 mm 1 mps 756 mmHg 91%
    02:00 +1°C° 0 mm 1 mps 756 mmHg 90%
    03:00 +1°C° 0 mm 1 mps 756 mmHg 90%
    04:00 +1°C° 0 mm 1 mps 756 mmHg 89%
    05:00 0°C° 0 mm 1 mps 757 mmHg 88%
    06:00 0°C° 0 mm 1 mps 757 mmHg 86%
    07:00 -1°C° 0 mm 1 mps 758 mmHg 85%
    08:00 0°C° 0 mm 1 mps 758 mmHg 81%
    09:00 0°C° 0 mm 1 mps 758 mmHg 77%
    10:00 -2°C° 0 mm 2 mps 758 mmHg 72%
    11:00 -2°C° 0 mm 2 mps 758 mmHg 70%
    12:00 -1°C° 0 mm 2 mps 758 mmHg 69%
    13:00 -1°C° 0 mm 2 mps 758 mmHg 67%
    14:00 0°C° 0 mm 1 mps 758 mmHg 70%
    15:00 0°C° 0 mm 1 mps 758 mmHg 73%
    16:00 -1°C° 0 mm 1 mps 758 mmHg 76%
    17:00 -1°C° 0 mm 1 mps 758 mmHg 78%
    18:00 -2°C° 0 mm 1 mps 758 mmHg 79%
    19:00 -3°C° 0 mm 0 mps 758 mmHg 80%
    20:00 -3°C° 0 mm 0 mps 758 mmHg 81%
    21:00 -4°C° 0 mm 0 mps 758 mmHg 82%
    22:00 -4°C° 0 mm 0 mps 758 mmHg 83%
    23:00 -3°C° 0 mm 1 mps 758 mmHg 84%

    Day after tomorrow, 22 January, Tuesday

    Time Temperature Precipitation Wind Pressure Humidity
    00:00 -3°C° 0 mm 1 mps 758 mmHg 86%
    01:00 -3°C° 0 mm 1 mps 758 mmHg 87%
    02:00 -3°C° 0 mm 1 mps 757 mmHg 88%
    03:00 -3°C° 0 mm 1 mps 757 mmHg 90%
    04:00 -3°C° 0 mm 1 mps 757 mmHg 91%
    05:00 -3°C° 0 mm 1 mps 757 mmHg 92%
    06:00 -3°C° 0 mm 1 mps 756 mmHg 92%
    07:00 -6°C° 0 mm 2 mps 756 mmHg 93%
    08:00 -5°C° 0 mm 2 mps 756 mmHg 91%
    09:00 -4°C° 0 mm 2 mps 755 mmHg 90%
    10:00 -5°C° 0 mm 3 mps 755 mmHg 88%
    11:00 -4°C° 0 mm 3 mps 754 mmHg 88%
    12:00 -4°C° 0 mm 3 mps 754 mmHg 87%
    13:00 -2°C° 0 mm 3 mps 753 mmHg 87%
    14:00 -2°C° 0.1 mm 3 mps 752 mmHg 88%
    15:00 -2°C° 0.1 mm 3 mps 751 mmHg 90%
    16:00 -3°C° 0.1 mm 4 mps 750 mmHg 91%
    17:00 -3°C° 0.1 mm 4 mps 750 mmHg 92%
    18:00 -3°C° 0.1 mm 4 mps 749 mmHg 93%
    19:00 -3°C° 0.1 mm 4 mps 749 mmHg 93%
    20:00 -3°C° 0.1 mm 4 mps 748 mmHg 93%
    21:00 -2°C° 0.1 mm 4 mps 748 mmHg 93%
    22:00 -2°C° 0.1 mm 4 mps 747 mmHg 93%
    23:00 -2°C° 0.1 mm 4 mps 746 mmHg 93%

    23 January, Wednesday

    Time Temperature Precipitation Wind Pressure Humidity
    00:00 -2°C° 0.1 mm 4 mps 746 mmHg 93%
    01:00 -2°C° 0.1 mm 4 mps 745 mmHg 93%
    02:00 -2°C° 0.2 mm 4 mps 744 mmHg 94%
    03:00 -2°C° 0.2 mm 4 mps 743 mmHg 94%
    04:00 -2°C° 0.2 mm 4 mps 742 mmHg 94%
    05:00 -2°C° 1.2 mm 4 mps 742 mmHg 95%
    06:00 -2°C° 1.2 mm 4 mps 742 mmHg 95%
    07:00 -1°C° 1.2 mm 4 mps 742 mmHg 96%
    08:00 -1°C° 0.5 mm 4 mps 742 mmHg 97%
    09:00 -1°C° 0.5 mm 4 mps 742 mmHg 97%
    10:00 -1°C° 0.5 mm 4 mps 741 mmHg 98%
    11:00 -1°C° 0.1 mm 4 mps 741 mmHg 98%
    12:00 -1°C° 0.1 mm 4 mps 741 mmHg 99%
    13:00 0°C° 0.1 mm 4 mps 740 mmHg 99%
    14:00 0°C° 0.1 mm 4 mps 740 mmHg 99%
    15:00 +1°C° 0.1 mm 3 mps 740 mmHg 98%
    16:00 +1°C° 0.1 mm 3 mps 740 mmHg 98%
    17:00 +1°C° 0.1 mm 3 mps 741 mmHg 98%
    18:00 +1°C° 0.1 mm 3 mps 741 mmHg 97%
    19:00 +1°C° 0.1 mm 3 mps 741 mmHg 97%
    20:00 0°C° 0.1 mm 3 mps 742 mmHg 97%
    21:00 0°C° 0.1 mm 3 mps 742 mmHg 98%
    22:00 0°C° 0.1 mm 3 mps 743 mmHg 98%
    23:00 0°C° 0.1 mm 3 mps 743 mmHg 98%

    24 January, Thursday

    Time Temperature Precipitation Wind Pressure Humidity
    00:00 +1°C° 0.1 mm 2 mps 743 mmHg 98%
    01:00 +1°C° 0.1 mm 2 mps 743 mmHg 97%
    02:00 -1°C° 0 mm 2 mps 743 mmHg 97%
    03:00 -1°C° 0 mm 2 mps 743 mmHg 97%
    04:00 -1°C° 0 mm 2 mps 743 mmHg 96%
    05:00 +1°C° 0 mm 1 mps 744 mmHg 96%
    06:00 +1°C° 0 mm 1 mps 744 mmHg 96%
    07:00 +1°C° 0 mm 1 mps 744 mmHg 95%
    08:00 +1°C° 0 mm 1 mps 745 mmHg 96%
    09:00 +2°C° 0 mm 1 mps 745 mmHg 97%
    10:00 +2°C° 0 mm 1 mps 745 mmHg 98%
    11:00 +1°C° 0 mm 2 mps 745 mmHg 98%
    12:00 +2°C° 0 mm 2 mps 745 mmHg 98%
    13:00 +1°C° 0 mm 3 mps 745 mmHg 98%
    14:00 +1°C° 0 mm 3 mps 745 mmHg 97%
    15:00 0°C° 0 mm 3 mps 745 mmHg 96%
    16:00 0°C° 0 mm 3 mps 745 mmHg 95%
    17:00 0°C° 0 mm 3 mps 745 mmHg 94%
    18:00 -1°C° 0 mm 3 mps 745 mmHg 94%
    19:00 -2°C° 0 mm 4 mps 745 mmHg 93%
    20:00 -2°C° 0 mm 4 mps 745 mmHg 91%
    21:00 -2°C° 0 mm 5 mps 745 mmHg 89%
    22:00 -1°C° 0 mm 5 mps 744 mmHg 88%
    23:00 -1°C° 0 mm 5 mps 744 mmHg 87%

    25 January, Friday

    Time Temperature Precipitation Wind Pressure Humidity
    00:00 -1°C° 0 mm 5 mps 744 mmHg 86%
    01:00 -1°C° 0 mm 5 mps 744 mmHg 85%
    02:00 -1°C° 0 mm 5 mps 744 mmHg 84%
    03:00 -2°C° 0 mm 6 mps 744 mmHg 84%
    04:00 -2°C° 0 mm 6 mps 743 mmHg 84%
    05:00 -1°C° 0 mm 7 mps 744 mmHg 82%
    06:00 -1°C° 0 mm 7 mps 744 mmHg 81%
    07:00 -1°C° 0 mm 8 mps 744 mmHg 80%
    08:00 -1°C° 0.2 mm 7 mps 744 mmHg 80%
    09:00 0°C° 0.2 mm 7 mps 745 mmHg 81%
    10:00 0°C° 0.2 mm 7 mps 745 mmHg 81%
    11:00 +1°C° 0.4 mm 6 mps 745 mmHg 82%
    12:00 +1°C° 0.4 mm 6 mps 745 mmHg 84%
    13:00 +1°C° 0.4 mm 6 mps 745 mmHg 85%
    14:00 +1°C° 0.6 mm 6 mps 745 mmHg 85%
    15:00 -1°C° 0.6 mm 6 mps 746 mmHg 85%
    16:00 -1°C° 0.6 mm 6 mps 746 mmHg 85%
    17:00 -1°C° 0.5 mm 6 mps 746 mmHg 85%
    18:00 -1°C° 0.5 mm 6 mps 747 mmHg 85%
    19:00 -1°C° 0.5 mm 6 mps 747 mmHg 84%
    20:00 -1°C° 0.2 mm 6 mps 748 mmHg 84%
    21:00 -1°C° 0.2 mm 6 mps 748 mmHg 83%
    22:00 -1°C° 0.2 mm 6 mps 748 mmHg 82%
    23:00 -2°C° 0 mm 6 mps 749 mmHg 81%
    Show more